星链-30313 (STARLINK-30313 )

导读 | 星芒AI

STARLINK-30313 是 SpaceX Starlink 卫星互联网项目中的第 30313 颗卫星,属于低轨通信卫星群的一部分。该卫星旨在为全球用户提供高速、低延迟的互联网服务,特别关注网络覆盖不足的地区。它采用先进的推进和通信技术,支持星间链路,提升数据传输效率。STARLINK-30313 的发射和运行有助于扩展 Starlink 网络的容量和可靠性,推动全球宽带接入的普及。

基本信息
目录编号:
57676
目录名称:
STARLINK-30313
国际标识:
2023-124P
轨道中心:
EARTH
卫星名称:
星链-30313
卫星全名:
星链-30313 (STARLINK-30313 )
卫星状态:
在轨 (已飞行850 天)
发射日期:
2023-08-22 UTC
国别 :
美国 (US)
星等 :
--
轨道信息
数据来源 国际轨道数据
星历时间: 2025-12-18T16:33:58+0800
18小时前
查看轨道信息
半长轴: 6853.371km
偏心率: 0.0001347
轨道倾角: 53.160°
近地点辐角 95.247°
升交点赤经 224.770°
平近点角 264.869°
近地点: 474.312km
远地点: 476.16km
周期: 94.106分钟
每日圈数: 15.301937
详细信息
固有亮度:
5
最大亮度:
0.3
卫星平台:
Starlink v2.0 mini
覆盖范围:
全球
运营商:
太空探索技术公司
运营商所在国:
美国
制造商(研发单位):
太空探索技术公司
制造商所在国:
美国
使用方式:
暂无
卫星简介
星链(Starlink)计划是由太空探索技术公司(SpaceX)提出的一个巨型低轨卫星互联网星座项目,计划在2019年至2024年间在太空搭建由约1.2万颗卫星组成的“星链”网络,其中1584颗将部署在地球上空550千米处的近地轨道,并从2020年开始工作。该卫星仍在工作。
2D轨道图
3D轨道图
轨道高度分析图
轨道倾角分析图
轨道综合分析图
查看轨道综合分析图